This is the latest recevied weather packets stored in our database for station/object DL4NBA-1. If no packets are shown the sender has not sent any weather packets the latest 10 day(s).
| Time | Temp. | Humidity | Pressure | Rain* | Wind** | Luminosity | Snow |
|---|---|---|---|---|---|---|---|
| 1777662961 | 15.56° C | - | - | 0 mm | 0.45 m/s, 110° | - | - |
| 1777662658 | 15.56° C | - | - | 0 mm | 0 m/s | - | - |
| 1777662360 | 16.11° C | - | - | 0 mm | 0.45 m/s, 107° | - | - |
| 1777662061 | 16.67° C | - | - | 0 mm | 0.45 m/s, 97° | - | - |
| 1777661762 | 16.11° C | - | - | 0 mm | 0.45 m/s, 121° | - | - |
| 1777661463 | 16.11° C | - | - | 0 mm | 0.45 m/s, 100° | - | - |
| 1777661160 | 17.22° C | - | - | 0 mm | 0.45 m/s, 107° | - | - |
| 1777660861 | 17.22° C | - | - | 0 mm | 0.89 m/s, 129° | - | - |
| 1777660562 | 17.22° C | - | - | 0 mm | 0.45 m/s, 132° | - | - |
| 1777660263 | 17.22° C | - | - | 0 mm | 0.45 m/s, 134° | - | - |
| 1777659963 | 17.78° C | - | - | 0 mm | 0.45 m/s, 134° | - | - |
| 1777659660 | 18.89° C | - | - | 0 mm | 0.89 m/s, 155° | - | - |
| 1777659362 | 18.89° C | - | - | 0 mm | 0.89 m/s, 152° | - | - |
| 1777659063 | 21.11° C | - | - | 0 mm | 1.34 m/s, 115° | - | - |
| 1777658764 | 24.44° C | - | - | 0 mm | 0.45 m/s, 77° | - | - |
| 1777658465 | 25.56° C | - | - | 0 mm | 0.45 m/s, 142° | - | - |
| 1777658162 | 26.11° C | - | - | 0 mm | 0.89 m/s, 141° | - | - |
| 1777657863 | 26.67° C | - | - | 0 mm | 1.34 m/s, 159° | - | - |
| 1777657563 | 26.11° C | - | - | 0 mm | 1.79 m/s, 122° | - | - |
| 1777657264 | 27.22° C | - | - | 0 mm | 2.68 m/s, 143° | - | - |
| 1777656965 | 27.78° C | - | - | 0 mm | 1.34 m/s, 143° | - | - |
| 1777656663 | 27.78° C | - | - | 0 mm | 1.79 m/s, 98° | - | - |
| 1777656364 | 29.44° C | - | - | 0 mm | 0.89 m/s, 127° | - | - |
| 1777656065 | 29.44° C | - | - | 0 mm | 0.89 m/s, 122° | - | - |
| 1777655766 | 28.89° C | - | - | 0 mm | 1.79 m/s, 125° | - | - |
* Rain latest hour (hover to see other rain measurements)
** Current wind speed in m/s (hover to see current wind gust speed)